Miscellaneous Local Product
Issued by NWS Hastings, NE

Home | Current Version | Previous Version | Graphics & Text | Print | Product List | Glossary On
Versions: 1 2 3 4 5 6 7 8 9 10 11 12 13 14 15 16 17 18 19 20 21 22 23 24 25 26 27 28 29 30 31 32 33 34 35 36 37 38 39 40 41 42 43 44 45 46 47 48 49 50
000
AXUS43 KGID 261102
MISGRI

GID CWA HOURLY WEATHER ROUNDUP
NATIONAL WEATHER SERVICE HASTINGS NE
600 AM CDT THU APR 26 2018

NOTE: "FAIR" INDICATES FEW OR NO CLOUDS BELOW 12,000 FEET WITH NO
SIGNIFICANT WEATHER AND/OR OBSTRUCTIONS TO VISIBILITY.

...SOUTH CENTRAL NEBRASKA...

CITY           SKY/WX    TMP DP  RH WIND       PRES   REMARKS
GRAND ISLAND   CLOUDY    41  37  86 SW12      29.96F
KEARNEY        CLOUDY    35  33  92 S8        29.95F WCI  29
HASTINGS       CLOUDY    38  36  92 SW6       29.98S WCI  33
ORD            PTCLDY    35  33  92 CALM      29.92S
YORK             N/A     39  39 100 W10       29.98S WCI  32
AURORA         CLOUDY    39  37  92 SW9       29.97S WCI  32
LEXINGTON      PTCLDY    39  34  81 SE6       29.92F
HOLDREGE       PTCLDY    37  35  90 S7        29.95F WCI  32
HEBRON         CLOUDY    34  33  96 CALM      30.00S FOG

...NEBRASKA PANHANDLE...

CITY           SKY/WX    TMP DP  RH WIND       PRES   REMARKS
CHADRON        CLOUDY    48  32  53 N22G28    30.12R
ALLIANCE       PTCLDY    45  33  63 N18       30.07R
SCOTTSBLUFF    CLOUDY    50  32  50 NW28G37   30.11R
SIDNEY         PTCLDY    46  30  53 N18       30.06R

...WESTERN AND NORTH CENTRAL NEBRASKA...

CITY           SKY/WX    TMP DP  RH WIND       PRES   REMARKS
VALENTINE      CLOUDY    52  35  52 N15G30    29.96R
AINSWORTH      MOCLDY    47  35  65 N17       29.92R
ONEILL         MOCLDY    44  37  76 SW8       29.90S
BROKEN BOW     MOCLDY    35  31  85 CALM      29.91F
IMPERIAL       CLOUDY    41  34  76 W8        29.93R
NORTH PLATTE   CLOUDY    41  34  76 NW7       29.94R
MCCOOK         CLOUDY    37  34  89 SE6       29.91F WCI  32

...EASTERN NEBRASKA...

CITY           SKY/WX    TMP DP  RH WIND       PRES   REMARKS
NORFOLK        CLOUDY    42  36  79 SW9       29.92F
SO SIOUX CITY  CLOUDY    42  33  70 SW9       29.92F
TEKAMAH        CLOUDY    35  30  82 SE5       29.96R WCI  31
COLUMBUS       CLOUDY    41  36  82 W6        29.97S
ALBION         CLOUDY    40  36  86 S5        29.94F
OMAHA EPPLEY   CLOUDY    41  35  79 E3        29.97S
MILLARD        CLOUDY    40  35  82 CALM      29.97S
LINCOLN        CLOUDY    37  33  85 CALM      29.99S
NEBRASKA CITY  CLOUDY    40  38  92 W10       29.98R WCI  34
BEATRICE       CLOUDY    34  32  94 CALM      29.99S
FALLS CITY     CLOUDY    34  32  92 NW7       29.98S WCI  28

...NORTHERN KANSAS...

CITY           SKY/WX    TMP DP  RH WIND       PRES   REMARKS
GOODLAND       MOCLDY    41  33  73 SW8       29.93F
HILL CITY      CLEAR     33  33 100 CALM      29.98R
NORTON         SUNNY     34  30  86 CALM      29.95F
PHILLIPSBURG   CLEAR     36  36 100 CALM      29.99R
SMITH CENTER   CLEAR     34  32  93 CALM      30.00R
BELOIT         CLEAR     32  30  93 CALM      29.99F FOG
HAYS           CLEAR     33  33 100 S5        29.98F FOG     WCI  29
RUSSELL        CLEAR     34  34 100 SW9       29.97S WCI  27
CONCORDIA      CLOUDY    37  35  92 W5        29.98F WCI  33
SALINA         CLEAR     36  35  96 CALM      29.99F
TOPEKA         CLEAR     38  38 100 CALM      29.99S FOG



USA.gov is the U.S. government's official web portal to all federal, state and local government web resources and services.